Regional Weather Roundup
Issued by NWS Albany, NY

Home | Current Version | Previous Version | Text Only | Print | Product List | Glossary On
Versions: 1 2 3 4 5 6 7 8 9 10 11 12 13 14 15 16 17 18 19 20 21 22 23 24 25 26 27 28 29 30 31 32 33 34 35 36 37 38 39 40 41 42 43 44 45 46 47 48 49 50
000
ASUS41 KALY 231410
RWRALY

NEW YORK STATE HOURLY WEATHER ROUNDUP
NATIONAL WEATHER SERVICE ALBANY NY
1000 AM EDT SAT AUG 23 2014

NOTE: "FAIR" INDICATES FEW OR NO CLOUDS BELOW 12,000 FEET WITH NO
SIGNIFICANT WEATHER AND/OR NO OBSTRUCTIONS TO VISIBILITY.

NYZ032-033-038>043-046>054-057>066-NYZ062>081-231500-
EAST


CITY           SKY/WX    TMP DP  RH WIND       PRES   REMARKS
ALBANY         CLOUDY    67  60  78 VRB5      30.14R
GLENS FALLS    CLOUDY    66  58  75 NE7       30.14S
POUGHKEEPSIE   CLOUDY    68  58  70 E8        30.11R
NEWBURGH       PTSUNNY   66  61  82 E12       30.13R
MONTGOMERY     CLOUDY    67  59  75 E7        30.11S
WHITE PLAINS   PTSUNNY   68  58  70 E8        30.10R
ISLIP          PTSUNNY   70  60  70 NE9       30.08R
NEW YORK CITY  PTSUNNY   70  60  70 NE12      30.09R
CENTRAL PARK   CLOUDY    69  59  70 NE6       30.12R
$$

NYZ005>009-017-018-044>046-055-056-231500-
CENTRAL


CITY           SKY/WX    TMP DP  RH WIND       PRES   REMARKS
FULTON         CLOUDY    66  61  84 VRB5      30.08R
SYRACUSE       DRIZZLE   66  62  87 E9        30.08S
ROME           CLOUDY    65  61  87 SE8       30.13R
ELMIRA         CLOUDY    66  63  90 SE5       30.07R
BINGHAMTON     CLOUDY    64  58  80 SE9       30.11R
MONTICELLO     CLOUDY    63  57  82 E6        30.14R
$$

NYZ026>034-041>043-231500-
NORTH


CITY           SKY/WX    TMP DP  RH WIND       PRES   REMARKS
WATERTOWN      LGT RAIN  66  61  84 E9        30.10R
FORT DRUM      NOT AVBL
MASSENA        MOSUNNY   70  62  76 NE6       30.14S
SARANAC LAKE   PTSUNNY   64  57  78 E6        30.16R
PLATTSBURGH    MOSUNNY   69  60  73 CALM      30.15S
$$

NYZ001>004-010>016-019>021-231500-
WEST


CITY           SKY/WX    TMP DP  RH WIND       PRES   REMARKS
NIAGARA FALLS  CLOUDY    67  64  90 NE8       30.05S
BUFFALO        CLOUDY    68  64  87 N7        30.05S
DUNKIRK        CLOUDY    69  65  86 VRB6      30.04S
JAMESTOWN      CLOUDY    66  63  88 NE8       30.05F
WELLSVILLE     CLOUDY    68  64  87 NE7       30.08F
ROCHESTER      CLOUDY    69  66  90 N9        30.05S
PENN YAN       CLOUDY    69  63  81 SE6       30.07S
$$

             KEY
       WCI = WIND CHILL INDEX
       VSB = VISIBILITY
       HX  = HEAT INDEX
$$


USA.gov is the U.S. government's official web portal to all federal, state and local government web resources and services.